Location: *
(38.4303°S, 157.0822°W)
Time: 17:03:56
(UTC+00:00)

DMSP B5D2-2 - Pass Details

Date: 08 August 2024
Orbit: 787 x 802 km, 98.3° (Epoch: 06 September)

Event Time Altitude Azimuth Distance (km) Brightness Sun altitude
Rises 15:22:04 0° 172° (S) 3,349 7.4 -23.7°
Reaches altitude 10° 15:24:27 10° 175° (S) 2,409 6.6 -23.3°
Maximum altitude 15:29:42 61° 253° (WSW) 914 4.0 -22.2°
Enters shadow 15:33:15 20° 328° (NNW) 1,762 5.6 -21.5°
